Time,TemperatureF,DewpointF,PressureIn,WindDirection,WindDirectionDegrees,WindSpeedMPH,WindSpeedGustMPH,Humidity,HourlyPrecipIn,Conditions,Clouds,dailyrainin,SoftwareType,DateUTC
2013-01-21 00:10:00,28.7,3.0,30.16,ESE,110,7.0,8.0,33,0.00,,,0.00,weatherlink.com 1.10,2013-01-21 07:10:00,
2013-01-21 00:25:00,29.0,3.0,30.15,WNW,300,0.0,12.0,33,0.00,,,0.00,weatherlink.com 1.10,2013-01-21 07:25:00,
2013-01-21 00:40:00,28.5,3.0,30.16,North,5,3.0,5.0,33,0.00,,,0.00,weatherlink.com 1.10,2013-01-21 07:40:00,
2013-01-21 00:55:00,28.4,2.0,30.16,NNE,30,2.0,7.0,32,0.00,,,0.00,weatherlink.com 1.10,2013-01-21 07:55:00,
2013-01-21 01:10:00,28.3,2.0,30.16,SSE,150,1.0,8.0,32,0.00,,,0.00,weatherlink.com 1.10,2013-01-21 08:10:00,
2013-01-21 01:25:00,28.2,2.0,30.16,East,98,0.0,5.0,33,0.00,,,0.00,weatherlink.com 1.10,2013-01-21 08:25:00,
2013-01-21 01:40:00,27.7,3.0,30.16,North,352,1.0,8.0,34,0.00,,,0.00,weatherlink.com 1.10,2013-01-21 08:40:00,
2013-01-21 01:55:00,27.7,3.0,30.16,NNW,346,5.0,12.0,34,0.00,,,0.00,weatherlink.com 1.10,2013-01-21 08:55:00,
2013-01-21 02:10:00,27.1,3.0,30.17,WNW,292,2.0,4.0,36,0.00,,,0.00,weatherlink.com 1.10,2013-01-21 09:10:00,
2013-01-21 02:25:00,27.4,2.0,30.18,West,275,5.0,9.0,33,0.00,,,0.00,weatherlink.com 1.10,2013-01-21 09:25:00,
2013-01-21 02:40:00,27.5,2.0,30.16,ENE,64,2.0,9.0,33,0.00,,,0.00,weatherlink.com 1.10,2013-01-21 09:40:00,
2013-01-21 02:55:00,27.8,1.0,30.16,ENE,74,11.0,11.0,32,0.00,,,0.00,weatherlink.com 1.10,2013-01-21 09:55:00,
2013-01-21 03:10:00,27.6,1.0,30.16,NNW,334,1.0,7.0,32,0.00,,,0.00,weatherlink.com 1.10,2013-01-21 10:10:00,
2013-01-21 03:25:00,27.7,2.0,30.15,NW,305,2.0,7.0,33,0.00,,,0.00,weatherlink.com 1.10,2013-01-21 10:25:00,
2013-01-21 03:40:00,27.8,2.0,30.16,West,278,5.0,8.0,33,0.00,,,0.00,weatherlink.com 1.10,2013-01-21 10:40:00,
2013-01-21 03:55:00,27.8,2.0,30.15,WNW,300,7.0,10.0,33,0.00,,,0.00,weatherlink.com 1.10,2013-01-21 10:55:00,
2013-01-21 04:11:00,28.0,3.0,30.16,WSW,255,3.0,10.0,34,0.00,,,0.00,weatherlink.com 1.10,2013-01-21 11:11:00,
2013-01-21 04:26:00,27.8,3.0,30.16,NW,320,5.0,17.0,34,0.00,,,0.00,weatherlink.com 1.10,2013-01-21 11:26:00,
2013-01-21 04:41:00,28.0,2.0,30.15,East,90,2.0,7.0,33,0.00,,,0.00,weatherlink.com 1.10,2013-01-21 11:41:00,
2013-01-21 04:56:00,27.7,2.0,30.15,West,264,4.0,9.0,33,0.00,,,0.00,weatherlink.com 1.10,2013-01-21 11:56:00,
2013-01-21 05:11:00,27.8,3.0,30.16,East,93,0.0,8.0,35,0.00,,,0.00,weatherlink.com 1.10,2013-01-21 12:11:00,
2013-01-21 05:26:00,28.0,4.0,30.16,ENE,66,1.0,15.0,35,0.00,,,0.00,weatherlink.com 1.10,2013-01-21 12:26:00,
2013-01-21 05:41:00,28.4,4.0,30.17,SSW,211,1.0,8.0,35,0.00,,,0.00,weatherlink.com 1.10,2013-01-21 12:41:00,
2013-01-21 05:56:00,27.4,2.0,30.17,East,93,0.0,7.0,34,0.00,,,0.00,weatherlink.com 1.10,2013-01-21 12:56:00,
2013-01-21 06:11:00,26.9,3.0,30.17,NW,321,2.0,8.0,35,0.00,,,0.00,weatherlink.com 1.10,2013-01-21 13:11:00,
2013-01-21 06:26:00,26.7,3.0,30.17,East,82,7.0,8.0,36,0.00,,,0.00,weatherlink.com 1.10,2013-01-21 13:26:00,
2013-01-21 06:41:00,26.8,4.0,30.18,NNW,338,2.0,11.0,37,0.00,,,0.00,weatherlink.com 1.10,2013-01-21 13:41:00,
2013-01-21 06:56:00,27.0,3.0,30.16,WNW,282,5.0,9.0,36,0.00,,,0.00,weatherlink.com 1.10,2013-01-21 13:56:00,
2013-01-21 07:11:00,27.5,4.0,30.18,WNW,289,1.0,13.0,36,0.00,,,0.00,weatherlink.com 1.10,2013-01-21 14:11:00,
2013-01-21 07:26:00,27.7,3.0,30.18,NE,51,2.0,13.0,35,0.00,,,0.00,weatherlink.com 1.10,2013-01-21 14:26:00,
2013-01-21 07:41:00,27.6,3.0,30.17,NW,321,3.0,18.0,35,0.00,,,0.00,weatherlink.com 1.10,2013-01-21 14:41:00,
2013-01-21 07:56:00,27.9,3.0,30.18,WNW,283,1.0,12.0,35,0.00,,,0.00,weatherlink.com 1.10,2013-01-21 14:56:00,
2013-01-21 08:11:00,28.5,5.0,30.17,WNW,293,4.0,9.0,36,0.00,,,0.00,weatherlink.com 1.10,2013-01-21 15:11:00,
2013-01-21 08:26:00,29.1,6.0,30.16,NNE,32,1.0,15.0,38,0.00,,,0.00,weatherlink.com 1.10,2013-01-21 15:26:00,
2013-01-21 08:41:00,29.8,6.0,30.16,ENE,58,2.0,6.0,37,0.00,,,0.00,weatherlink.com 1.10,2013-01-21 15:41:00,
2013-01-21 08:56:00,30.6,5.0,30.17,East,98,8.0,18.0,34,0.00,,,0.00,weatherlink.com 1.10,2013-01-21 15:56:00,
2013-01-21 09:11:00,31.1,5.0,30.18,ESE,115,0.0,7.0,33,0.00,,,0.00,weatherlink.com 1.10,2013-01-21 16:11:00,
2013-01-21 09:26:00,31.3,5.0,30.18,East,86,8.0,8.0,33,0.00,,,0.00,weatherlink.com 1.10,2013-01-21 16:26:00,
2013-01-21 09:41:00,31.8,6.0,30.20,East,86,7.0,9.0,33,0.00,,,0.00,weatherlink.com 1.10,2013-01-21 16:41:00,
2013-01-21 09:56:00,32.2,6.0,30.21,ENE,67,3.0,9.0,33,0.00,,,0.00,weatherlink.com 1.10,2013-01-21 16:56:00,
2013-01-21 10:11:00,32.0,7.0,30.20,WNW,290,0.0,13.0,35,0.00,,,0.00,weatherlink.com 1.10,2013-01-21 17:11:00,
2013-01-21 10:26:00,32.1,9.0,30.15,WNW,294,6.0,23.0,38,0.00,,,0.00,weatherlink.com 1.10,2013-01-21 17:26:00,
2013-01-21 10:41:00,32.1,9.0,30.14,SW,236,10.0,24.0,38,0.00,,,0.00,weatherlink.com 1.10,2013-01-21 17:41:00,
2013-01-21 10:56:00,32.2,9.0,30.14,West,280,9.0,27.0,38,0.00,,,0.00,weatherlink.com 1.10,2013-01-21 17:56:00,
2013-01-21 11:11:00,33.1,10.0,30.16,WNW,293,13.0,23.0,38,0.00,,,0.00,weatherlink.com 1.10,2013-01-21 18:11:00,
2013-01-21 11:26:00,33.5,10.0,30.16,NW,309,19.0,23.0,37,0.00,,,0.00,weatherlink.com 1.10,2013-01-21 18:26:00,
2013-01-21 11:41:00,33.3,9.0,30.14,WNW,294,13.0,24.0,36,0.00,,,0.00,weatherlink.com 1.10,2013-01-21 18:41:00,
2013-01-21 11:56:00,33.5,9.0,30.14,West,269,10.0,26.0,36,0.00,,,0.00,weatherlink.com 1.10,2013-01-21 18:56:00,
2013-01-21 12:12:00,33.7,9.0,30.11,WNW,291,12.0,30.0,36,0.00,,,0.00,weatherlink.com 1.10,2013-01-21 19:12:00,
2013-01-21 12:27:00,33.9,9.0,30.12,WSW,239,16.0,32.0,35,0.00,,,0.00,weatherlink.com 1.10,2013-01-21 19:27:00,
2013-01-21 12:42:00,33.5,8.0,30.12,WNW,293,12.0,22.0,35,0.00,,,0.00,weatherlink.com 1.10,2013-01-21 19:42:00,
2013-01-21 12:57:00,33.3,8.0,30.11,WSW,258,9.0,24.0,35,0.00,,,0.00,weatherlink.com 1.10,2013-01-21 19:57:00,
2013-01-21 13:12:00,33.4,8.0,30.10,West,278,4.0,20.0,34,0.00,,,0.00,weatherlink.com 1.10,2013-01-21 20:12:00,
2013-01-21 13:27:00,34.7,9.0,30.11,NW,314,7.0,24.0,34,0.00,,,0.00,weatherlink.com 1.10,2013-01-21 20:27:00,
2013-01-21 13:42:00,34.9,8.0,30.13,WNW,287,7.0,29.0,33,0.00,,,0.00,weatherlink.com 1.10,2013-01-21 20:42:00,
2013-01-21 13:57:00,35.3,7.0,30.14,WNW,300,8.0,29.0,31,0.00,,,0.00,weatherlink.com 1.10,2013-01-21 20:57:00,
2013-01-21 14:12:00,34.7,7.0,30.13,East,98,3.0,18.0,31,0.00,,,0.00,weatherlink.com 1.10,2013-01-21 21:12:00,
2013-01-21 14:27:00,34.6,7.0,30.14,West,276,2.0,13.0,31,0.00,,,0.00,weatherlink.com 1.10,2013-01-21 21:27:00,
2013-01-21 14:42:00,34.8,8.0,30.13,SW,228,4.0,14.0,32,0.00,,,0.00,weatherlink.com 1.10,2013-01-21 21:42:00,
2013-01-21 14:57:00,35.2,7.0,30.11,West,264,12.0,20.0,30,0.00,,,0.00,weatherlink.com 1.10,2013-01-21 21:57:00,
2013-01-21 15:12:00,34.8,7.0,30.10,West,273,10.0,23.0,31,0.00,,,0.00,weatherlink.com 1.10,2013-01-21 22:12:00,
2013-01-21 15:27:00,34.8,7.0,30.11,West,277,4.0,20.0,31,0.00,,,0.00,weatherlink.com 1.10,2013-01-21 22:27:00,
2013-01-21 15:43:00,34.6,6.0,30.14,NW,311,5.0,21.0,30,0.00,,,0.00,weatherlink.com 1.10,2013-01-21 22:43:00,
2013-01-21 15:57:00,34.4,5.0,30.14,East,96,11.0,19.0,29,0.00,,,0.00,weatherlink.com 1.10,2013-01-21 22:57:00,
2013-01-21 16:12:00,34.0,5.0,30.15,WSW,257,4.0,12.0,29,0.00,,,0.00,weatherlink.com 1.10,2013-01-21 23:12:00,
2013-01-21 16:27:00,33.8,5.0,30.14,WNW,292,2.0,22.0,29,0.00,,,0.00,weatherlink.com 1.10,2013-01-21 23:27:00,
2013-01-21 16:42:00,33.3,6.0,30.15,East,98,3.0,8.0,31,0.00,,,0.00,weatherlink.com 1.10,2013-01-21 23:42:00,
2013-01-21 16:57:00,33.4,3.0,30.16,SE,142,3.0,10.0,28,0.00,,,0.00,weatherlink.com 1.10,2013-01-21 23:57:00,
2013-01-21 17:13:00,33.1,2.0,30.14,WNW,297,8.0,17.0,27,0.00,,,0.00,weatherlink.com 1.10,2013-01-22 00:13:00,
2013-01-21 17:27:00,33.2,3.0,30.12,WNW,301,5.0,18.0,28,0.00,,,0.00,weatherlink.com 1.10,2013-01-22 00:27:00,
2013-01-21 17:42:00,33.2,2.0,30.12,West,274,6.0,17.0,26,0.00,,,0.00,weatherlink.com 1.10,2013-01-22 00:42:00,
2013-01-21 17:57:00,33.2,2.0,30.11,WNW,293,10.0,28.0,27,0.00,,,0.00,weatherlink.com 1.10,2013-01-22 00:57:00,
2013-01-21 18:12:00,33.0,3.0,30.11,SW,232,7.0,28.0,28,0.00,,,0.00,weatherlink.com 1.10,2013-01-22 01:12:00,
2013-01-21 18:27:00,33.0,3.0,30.11,WNW,282,8.0,28.0,28,0.00,,,0.00,weatherlink.com 1.10,2013-01-22 01:27:00,
2013-01-21 18:42:00,32.9,2.0,30.13,WNW,284,16.0,29.0,27,0.00,,,0.00,weatherlink.com 1.10,2013-01-22 01:42:00,
2013-01-21 18:57:00,32.9,1.0,30.13,WNW,298,14.0,25.0,26,0.00,,,0.00,weatherlink.com 1.10,2013-01-22 01:57:00,
2013-01-21 19:12:00,33.0,2.0,30.16,West,263,4.0,19.0,27,0.00,,,0.00,weatherlink.com 1.10,2013-01-22 02:12:00,
2013-01-21 19:27:00,32.6,2.0,30.16,West,280,3.0,14.0,27,0.00,,,0.00,weatherlink.com 1.10,2013-01-22 02:27:00,
2013-01-21 19:42:00,32.8,1.0,30.18,NE,36,2.0,15.0,26,0.00,,,0.00,weatherlink.com 1.10,2013-01-22 02:42:00,
2013-01-21 19:57:00,32.6,0.0,30.20,East,100,0.0,13.0,25,0.00,,,0.00,weatherlink.com 1.10,2013-01-22 02:57:00,
2013-01-21 20:12:00,32.8,0.0,30.20,North,4,2.0,12.0,25,0.00,,,0.00,weatherlink.com 1.10,2013-01-22 03:12:00,
2013-01-21 20:27:00,32.8,0.0,30.19,NW,305,3.0,16.0,25,0.00,,,0.00,weatherlink.com 1.10,2013-01-22 03:27:00,
2013-01-21 20:42:00,32.1,1.0,30.18,NW,309,3.0,12.0,27,0.00,,,0.00,weatherlink.com 1.10,2013-01-22 03:42:00,
2013-01-21 20:57:00,32.4,1.0,30.17,WNW,295,7.0,17.0,26,0.00,,,0.00,weatherlink.com 1.10,2013-01-22 03:57:00,
2013-01-21 21:12:00,32.4,1.0,30.18,WNW,291,3.0,11.0,26,0.00,,,0.00,weatherlink.com 1.10,2013-01-22 04:12:00,
2013-01-21 21:27:00,32.5,1.0,30.19,ESE,103,2.0,12.0,26,0.00,,,0.00,weatherlink.com 1.10,2013-01-22 04:27:00,
2013-01-21 21:42:00,32.4,0.0,30.18,WSW,240,0.0,9.0,25,0.00,,,0.00,weatherlink.com 1.10,2013-01-22 04:42:00,
2013-01-21 21:57:00,32.6,-1.0,30.18,NNE,27,2.0,9.0,24,0.00,,,0.00,weatherlink.com 1.10,2013-01-22 04:57:00,
2013-01-21 22:12:00,32.3,0.0,30.18,NW,313,0.0,6.0,25,0.00,,,0.00,weatherlink.com 1.10,2013-01-22 05:12:00,
2013-01-21 22:27:00,32.6,-1.0,30.15,NNE,23,2.0,10.0,24,0.00,,,0.00,weatherlink.com 1.10,2013-01-22 05:27:00,
2013-01-21 22:42:00,32.9,0.0,30.14,South,172,2.0,8.0,24,0.00,,,0.00,weatherlink.com 1.10,2013-01-22 05:42:00,
2013-01-21 22:58:00,33.2,-1.0,30.12,West,267,4.0,21.0,23,0.00,,,0.00,weatherlink.com 1.10,2013-01-22 05:58:00,
2013-01-21 23:13:00,33.5,-2.0,30.11,NW,313,4.0,27.0,22,0.00,,,0.00,weatherlink.com 1.10,2013-01-22 06:13:00,
2013-01-21 23:28:00,33.5,-1.0,30.11,WNW,291,10.0,21.0,23,0.00,,,0.00,weatherlink.com 1.10,2013-01-22 06:28:00,
2013-01-21 23:43:00,33.5,-2.0,30.12,West,280,7.0,19.0,22,0.00,,,0.00,weatherlink.com 1.10,2013-01-22 06:43:00,
2013-01-21 23:58:00,33.8,-4.0,30.13,NW,304,5.0,17.0,20,0.00,,,0.00,weatherlink.com 1.10,2013-01-22 06:58:00,